Terminal Aerodrome Forecast
Issued by NWS

Home | Current Version | Previous Version | Text Only | Print | Product List | Glossary On
Versions: 1 2 3 4 5 6 7 8 9 10 11 12 13 14 15 16 17
000
FTUS45 KRIW 151900 AAA
TAFBPI
TAF AMD
KBPI 151910Z 1519/1618 29020G30KT P6SM SCT080 BKN120
     FM152200 30022G32KT P6SM VCSH SCT060 BKN080
     FM160300 33010KT P6SM SCT050 BKN250=

USA.gov is the U.S. government's official web portal to all federal, state and local government web resources and services.